Regional Weather Roundup
Issued by NWS Sioux Falls, SD

Home | Current Version | Previous Version | Text Only | Print | Product List | Glossary Off
Versions: 1 2 3 4 5 6 7 8 9 10 11 12 13 14 15 16 17 18 19 20 21 22 23 24 25 26 27 28 29 30 31 32 33 34 35 36 37 38 39 40 41 42 43 44 45 46 47 48 49 50

000
ASUS43 KFSD 160502
RWRFSD

WEATHER ROUNDUP FOR SE SOUTH DAKOTA/SW MINNESOTA/NW IOWA
NATIONAL WEATHER SERVICE SIOUX FALLS SD
1100 PM CST MON JAN 15 2018

NOTE: "FAIR" INDICATES FEW OR NO CLOUDS BELOW 12,000 FEET WITH NO
SIGNIFICANT WEATHER AND OR OBSTRUCTIONS TO VISIBILITY.


SDZ038>040-050-052>070-160600-
SOUTHEAST SOUTH DAKOTA

CITY           SKY/WX    TMP DP  RH WIND       PRES   REMARKS
BROOKINGS      CLOUDY    -6 -11  79 N14       30.65  WCI -26
CHAMBERLAIN    CLEAR     -4 -11  70 NW13      30.79R WCI -23
HURON          CLOUDY    -4 -11  72 N18G28    30.77S WCI -26
MADISON        CLOUDY    -4  -9  77 N17G25    30.65S WCI -26
MITCHELL       CLOUDY    -2  -9  72 N18       30.77R WCI -24
SIOUX FALLS    MOCLDY    -5 -11  75 N10       30.68R WCI -23
WINNER         FAIR      -3 -11  68 NW10      30.77R WCI -20
YANKTON        MOCLDY    -3  -9  75 NW18G24   30.74R WCI -25
$$

MNZ071-072-080-081-089-090-097-098-160600-
SOUTHWEST MINNESOTA

CITY           SKY/WX    TMP DP  RH WIND       PRES   REMARKS
FAIRMONT       LGT SNOW  -8 -13  78 MISG        N/A
JACKSON        LGT SNOW  -9 -15  77 NW20G28   30.59R WCI -34
LUVERNE        MOCLDY    -6 -13  71 N14G20    30.67R WCI -26
MARSHALL       LGT SNOW -10 -15  78 NW17      30.70R WCI -34
MONTEVIDEO     CLEAR    -11 -17  77 N17       30.71S WCI -35
PIPESTONE      PTCLDY    -9 -15  77 N13G22    30.61S HAZE    WCI -30
REDWOOD FALLS  CLOUDY    -9 -14  78 NW15G23   30.68R WCI -31
WINDOM         CLOUDY    -9 -24  49 NW18      30.61R HAZE    WCI -33
WORTHINGTON    PTCLDY   -11 -16  78 NW20      30.61R WCI -36
$$

IAZ001>003-012>014-020>022-031-032-NEZ013-014-SDZ071-160600-
NORTHWEST IOWA

CITY           SKY/WX    TMP DP  RH WIND       PRES   REMARKS
CHEROKEE       CLEAR     -6 -12  76 N12       30.66R WCI -25
DENISON        PTCLDY    -6 -11  77 NW13      30.66S WCI -25
ESTHERVILLE    CLOUDY   -11 -16  78 NW20      30.60R WCI -36
LE MARS        CLOUDY    -4 -11  71 NW13G20   30.69R WCI -23
ORANGE CITY    CLOUDY    -4  -9  77 N16G24    30.64R WCI -25
SHELDON        CLOUDY    -6 -11  77 N18       30.63R WCI -29
SIOUX CITY     MOCLDY    -3 -10  72 NW21      30.71R WCI -26
SPENCER        CLOUDY    -8 -15  71 NW15      30.63R WCI -30
STORM LAKE     MOCLDY    -8 -13  77 NW16      30.60S WCI -30
$$

ABBREVIATIONS USED IN REMARKS
   TC - TEMPERATURE IN CELSIUS
  WCI - WIND CHILL INDEX
   HX - HEAT INDEX
  VSB - VISIBILITY





USA.gov is the U.S. government's official web portal to all federal, state and local government web resources and services.